Location: Budo Alegbe
(8.2833°N, 4.5000°E)
Time: 17:53:08
(UTC+00:00)

Daily predictions for brighter satellites

Satellite Brightness Start Highest point End
(mag) Time Altitude Azimuth Time Altitude Azimuth Time Altitude Azimuth
Meteor 1-20 Rocket 4.2 18:04:13 10° S 18:09:40 89° E 18:15:09 10° N
Ariane H10+ 3.6 18:11:02 10° SW 18:13:10 20° SSE 18:16:18 10° ESE
ARIANE 5 R/B 4.3 18:11:06 10° WSW 18:15:46 61° S 18:47:42 13° E
ARIANE 5 R/B 4.3 18:11:07 10° WSW 18:15:46 61° S 18:47:43 13° E
ARIANE 5 R/B 4.3 18:11:06 10° WSW 18:15:46 61° S 18:47:43 13° E
Cosmos 1697 Rocket 4.5 18:20:20 10° ESE 18:21:10 10° ESE 18:21:59 10° E
FengYun 1-2 T 4.4 18:16:00 10° SSE 18:21:40 86° W 18:27:17 10° NNW
Cosmos 2034 Rocket 4.2 18:17:24 10° SSE 18:23:19 48° E 18:29:11 10° NNE
ADEOS Rocket 3.7 18:20:17 10° N 18:27:49 75° WNW 18:34:44 10° SSW
USA 267 3.6 18:26:12 10° NE 18:32:20 44° SE 18:38:29 10° SSW
SWIFT 3.6 18:30:48 10° SW 18:34:29 28° SSE 18:37:14 15° ESE
ARIANE 5 R/B 2.8 18:30:30 10° W 18:37:38 89° N 18:40:03 18° E
DNEPR-1 R/B 4.4 18:33:57 10° NNW 18:39:23 62° WSW 18:43:53 10° S
Cosmos 2285 Rocket 4.1 18:34:01 10° N 18:40:16 56° ENE 18:46:33 10° SSE
CZ-3A R/B 4.2 17:56:17 10° WSW 18:44:26 75° NNW 18:50:57 16° ENE
COSMOS 2455 3.2 18:42:25 10° S 18:48:01 42° ESE 18:53:10 12° NE
STARLINK-60 4.1 18:46:08 10° N 18:48:54 26° NE 18:48:54 26° NE
COSMOS 2487 3.6 18:46:30 10° NNE 18:48:34 23° NE 18:48:34 23° NE
ATLAS 2AS CENTAUR RB 4.3 13:27:55 10° WSW 18:49:42 80° S 18:56:43 22° E
Cosmos 1814 Rocket 4.4 18:45:25 10° SSW 18:50:30 65° WNW 18:55:34 10° N
deb Centaur AC-2 4.0 18:47:17 10° WSW 18:51:38 90° S 18:54:28 24° ENE
GPS 2-12 Rocket1 4.4 18:51:08 10° WNW 18:54:58 28° NNW 18:57:21 18° NE
Okean 1 3.6 18:53:22 10° NNE 18:57:05 39° E 19:00:47 10° SSE
Okean 1-7 3.1 18:54:04 10° N 18:58:18 52° E 19:02:34 10° SSE
Cosmos 1939 Rocket 3.5 18:55:58 10° S 18:59:59 58° W 19:04:03 10° NNW
Cosmos 1500 3.2 18:56:51 10° S 19:00:34 55° E 19:03:13 18° NNE
Yuri Rocket 3.3 18:55:41 10° WNW 19:01:36 76° NNE 19:03:45 32° ESE
Cosmos 405 2.9 18:59:17 10° N 19:02:46 57° E 19:06:15 10° SSE
Centaur AC-42 3.4 18:40:57 10° WSW 19:03:31 68° NNW 19:06:37 26° NE
Meteor 1-11 Rocket 3.9 18:58:32 10° SSE 19:04:00 47° E 19:09:20 10° NNE
CZ-2D R/B 4.4 19:03:30 10° S 19:07:12 44° W 19:10:55 10° NNW
CSL-04 Rocket 4.1 19:02:13 10° S 19:07:43 65° WSW 19:13:11 10° NNW
Cosmos 1733 Rocket 3.0 19:06:40 10° S 19:11:01 56° E 19:12:30 37° NE
CZ-4 R/B 4.0 19:07:58 10° SSW 19:11:21 24° W 19:14:45 10° NW
CZ-2C R/B 4.2 19:15:05 18° SE 19:15:05 18° SE 19:16:48 10° SSE
NOSS 3-4 (A) 3.2 19:08:20 10° SSW 19:14:21 67° ESE 19:17:19 30° NE
NOSS 3-4 (C) 3.3 19:08:24 10° SSW 19:14:26 65° ESE 19:17:21 30° NE
Palapa 6 Rocket 3.8 19:11:22 10° W 19:15:00 37° NNW 19:15:56 33° NNE
Cosmos 1703 Rocket 3.8 19:11:10 10° N 19:15:37 69° W 19:20:04 10° S
Cosmos 1898 Rocket 4.3 19:10:57 10° N 19:14:13 32° NE 19:14:13 32° NE
SJ 16-02 3.6 19:12:38 10° N 19:12:51 11° N 19:12:51 11° N
BLOCK DM-SL R/B 4.0 18:51:22 10° W 19:18:50 42° SSW 19:21:42 25° SE
Cosmos 724 4.3 19:13:40 10° NNW 19:19:31 84° WSW 19:25:28 10° SSE
Transit 2A Rocket 4.5 19:15:43 10° S 19:19:44 60° SE 19:19:44 60° SE
Meteor 1-19 Rocket 4.1 19:14:53 10° N 19:20:22 61° E 19:25:45 10° SSE
Ariane Rocket 2.9 19:17:10 10° SSE 19:22:13 66° ENE 19:27:15 10° N
Spelda 4.3 19:24:38 10° WSW 19:26:53 36° S 19:26:53 36° S
SJ-11-01 4.1 19:26:47 10° SSE 19:31:29 90° W 19:36:09 10° NNW
Cosmos 44 4.5 19:28:11 10° NW 19:32:34 40° WSW 19:37:11 10° S
FALCON 9 R/B 3.5 19:28:08 10° NW 19:38:26 31° NNE 19:38:38 31° NNE
IRS-1A Rocket 4.1 19:34:45 10° SSE 19:40:21 88° W 19:45:51 10° NNW
Cosmos 2369 3.6 19:38:03 10° SSW 19:43:47 86° WNW 19:44:11 78° N
ATLAS 2AS CENTAUR R/B 3.6 19:38:51 10° SW 19:46:09 54° WNW 19:53:45 11° N
ARIANE 5 R/B 4.2 19:52:30 10° SW 19:54:12 23° SSW 19:54:12 23° SSW
H-2A R/B 4.2 20:03:39 17° NNW 20:03:39 17° NNW 20:04:54 10° NNW
Cosmos 1697 Rocket 3.4 19:59:19 10° SSW 20:04:30 50° W 20:04:30 50° W
Aurora 2 Rocket 4.5 19:57:43 10° SW 20:07:01 68° SSE 20:07:43 66° SE
Ariane H10-3 4.2 19:33:57 10° W 20:10:02 48° SSW 20:11:29 44° S
Cosmos 1980 Rocket 4.3 20:09:13 10° SSW 20:10:20 16° SSW 20:10:20 16° SSW
Centaur AC-112 4.4 20:15:57 10° WNW 20:53:48 11° ESE 20:55:48 10° ESE
ATLAS 5 CENTAUR R/B 3.8 20:22:30 10° SW 21:16:41 - ENE 20:29:33 57° SSE
Cosmos 2344 4.1 20:27:01 10° SSW 20:34:45 59° WSW 20:34:45 59° WSW
